Regional Weather Roundup
Issued by NWS

Home | Current Version | Previous Version | Text Only | Print | Product List | Glossary On
Versions: 1 2 3 4 5 6 7 8 9 10 11 12 13 14 15 16 17 18 19 20 21 22 23 24 25 26 27 28 29 30 31 32 33 34 35 36 37 38 39 40 41 42 43 44 45 46 47 48 49 50
000
ASUS43 KLMK 280110
RWRKY
KENTUCKY REGIONAL WEATHER ROUNDUP
NATIONAL WEATHER SERVICE LOUISVILLE KY
800 PM EST THU NOV 27 2014

NOTE "FAIR" INDICATES FEW OR NO CLOUDS BELOW 12,000 FEET
WITH NO SIGNIFICANT WEATHER AND/OR OBSTRUCTIONS TO VISIBILITY.

KYZ001>023-026-027-061>063-070>075-280200-
WESTERN AND SOUTH CENTRAL KENTUCKY

CITY           SKY/WX    TMP DP  RH WIND       PRES   REMARKS
PADUCAH        MOCLDY    27  24  89 CALM      30.48R
HENDERSON      CLOUDY    28  21  74 CALM      30.48R
OWENSBORO      CLOUDY    29  22  75 NW6       30.48R WCI  23
HOPKINSVILLE   CLOUDY    31  23  74 NW1       30.47R
BOWLING GREEN  CLOUDY    31  20  63 NW6       30.48R WCI  25
GLASGOW        CLOUDY    29  22  73 W6        30.46R WCI  23
$$

KYZ024-025-028>034-038-045-046-053-280200-
NORTH CENTRAL KENTUCKY

CITY           SKY/WX    TMP DP  RH WIND       PRES   REMARKS
LOUISVILLE/SDF FLURRIES  30  22  72 W9        30.44R WCI  22
LOUISVILLE/LOU CLOUDY    29  22  75 W9        30.44S WCI  20
FORT KNOX      CLOUDY    27  21  80 W7        30.42R WCI  19
$$

KYZ035>037-039>044-047>052-055>060-089>105-280200-
NORTHEAST KENTUCKY

CITY           SKY/WX    TMP DP  RH WIND       PRES   REMARKS
LEXINGTON      CLOUDY    30  22  72 W12       30.38R WCI  20
COVINGTON      CLOUDY    30  19  63 NW16      30.37R WCI  19
FRANKFORT      CLOUDY    29  20  69 W10G22    30.40R WCI  20
$$

KYZ054-064>069-076>088-106>120-280200-
SOUTHEAST KENTUCKY

CITY           SKY/WX    TMP DP  RH WIND       PRES   REMARKS
JACKSON        CLOUDY    30  23  75 VRB5      30.35R WCI  25
LONDON         CLOUDY    31  24  75 W10       30.39R WCI  22
SOMERSET       CLOUDY    30  23  74 NW7       30.43R WCI  23
MIDDLESBORO    NOT AVBL
MONTICELLO     CLOUDY    30  25  82 W12       30.45R WCI  20
$$



USA.gov is the U.S. government's official web portal to all federal, state and local government web resources and services.